AirNav   Everest Fuels
 
 1045 users online  

4Y8 Para Field Airport
Yale, Michigan, USA

GOING TO YALE?


FAA INFORMATION EFFECTIVE 28 MARCH 2019

Location

FAA Identifier: 4Y8
Lat/Long: 43-12-08.0800N / 082-45-14.0000W
43-12.134667N / 082-45.233333W
43.2022444 / -82.7538889
(estimated)
Elevation: 800 ft. / 244 m (estimated)
Variation: 06W (1985)
From city: 5 miles NE of YALE, MI
Time zone: UTC -4 (UTC -5 during Standard Time)
Zip code: 48097

Airport Operations

Airport use: Open to the public
Activation date: 03/1973
Control tower: no
ARTCC: CLEVELAND CENTER
FSS: LANSING FLIGHT SERVICE STATION
NOTAMs facility: LAN (NOTAM-D service available)
Attendance: UNATNDD
ARPT CLSD OCT - MAR & WHEN SNOW COVERD. CALL AMGR FOR RWY CONDITIONS.
Wind indicator: yes
Segmented circle: no

Airport Communications

CTAF: 122.9

Airport Services

Runway Information

Runway 6/24

Dimensions: 2500 x 65 ft. / 762 x 20 m
Surface: turf, in fair condition
Runway edge markings: RYS 06 & 24 DSPLCD THLDS MKD WITH CONES.
RUNWAY 6  RUNWAY 24
Latitude: 43-12.031333N43-12.238000N
Longitude: 082-45.476000W082-44.989333W
Traffic pattern: leftleft
Displaced threshold: 476 ft.200 ft.
Obstructions: 25 ft. trees, 55 ft. right of centerline
APCH RATIO 20:1 AT DSPLCD THLD. 37 FT TREE 50 FT L 750 FT DSTC.
50 ft. trees, 55 ft. left and right of centerline
APCH RATIO 0:1 AT DSPLCD THLD, 40 FT TREES 0 FT DSTC, 68 FT R.

Airport Ownership and Management from official FAA records

Ownership: Privately-owned
Owner: RALPH P. KOHLITZ
39870 MAZUCHET DR
HARRISON TWP, MI 48045
Phone 313-320-2503
Manager: JEFFERY P. KOHLITZ
39748 CANNON DR
HARRISON TWP, MI 48045
Phone 313-320-2503

Airport Operational Statistics

Aircraft operations: 50/year *
100% transient general aviation
* for 12-month period ending 31 December 2017

Additional Remarks

ROLLING TERRAIN; RY SLOPES DOWNWARD AT BOTH ENDS. OPOSITE RY END NOT VSBL FM THLDS.

Instrument Procedures

There are no published instrument procedures at 4Y8.

Some nearby airports with instrument procedures:

77G - Marlette Airport (16 nm NW)
KPHN - St Clair County International Airport (20 nm SE)
D95 - Dupont-Lapeer Airport (24 nm W)
D98 - Romeo State Airport (26 nm S)
57D - Ray Community Airport (29 nm S)
 
Loc | Ops | Rwys | IFR | FBO | Links
Com | Nav | Svcs | Stats | Notes
Area around 4Y8 (Para Field Airport)
 
Road maps at: MapQuest Bing Google
 
Aerial photo
No photo
 
Sectional chart

 
Airport distance calculator
Flying to Para Field Airport? Find the distance to fly.

From to 4Y8

Sunrise and sunset
Times for 22-Apr-2019
 Local
(UTC-4)
 Zulu
(UTC)
Morning civil twilight06:0810:08
Sunrise06:3910:39
Sunset20:2000:20
Evening civil twilight20:5100:51

Current date and time
Zulu (UTC)  23-Apr-2019 00:10:17
Local (UTC-4)  22-Apr-2019 20:10:17
 
METAR
KPHN 
20nm SE 
222359Z AUTO 16006KT 10SM CLR 17/02 A3007 RMK AO2
CYZR 
23nm SE 
222300Z AUTO 17016KT 9SM CLR 17/05 A3006 RMK SLP182 DENSITY ALT 800FT
KD95 
24nm W 
222355Z AUTO 17004KT 10SM CLR 19/04 A3002 RMK AO2 T01910035 10230 20191
KCFS 
34nm NW 
222355Z AUTO 16011G16KT 10SM CLR 20/04 A2999 RMK AO2 T01980040 10245 20198
KMTC 
35nm S 
222355Z 12009KT 10SM SCT160 SCT230 14/09 A3004 RMK AO2A SLP179 T01430085 10184 20143 58022 $
KBAX 
36nm N 
222355Z AUTO 16011KT 10SM CLR 17/06 A3001 RMK AO2 T01680059 10213 20168
TAF
CYZR 
23nm SE 
221938Z 2220/2302 17012KT P6SM SCT140 BECMG 2300/2302 15008KT RMK FCST BASED ON AUTO OBS. NXT FCST WILL BE ISSUED AT 230745Z
NOTAMs
Click for the latest NOTAMs
NOTAMs are issued by the DoD/FAA and will open in a separate window not controlled by AirNav.

 

 
 

Would you like to see your business listed on this page?

 If your business provides an interesting product or service to pilots, flight crews, aircraft, or users of the Para Field Airport, you should consider listing it here.  To start the listing process, click on the button below
 
Add a business
 

Other Pages about Para Field Airport

Page from the Michigan Airport Directory (PDF)
 
Update a link
 
Copyright © AirNav, LLC. All rights reserved. Privacy Policy  Contact